| time (UTC) | temp F | wind direction | speed MPH | gust MPH | rain 1hr in | rain 24hr in | rain mn in | humidity % | barometer mb |
| 20260508060229 | 58 | 91 | 2.0 | 4.0 | 0.00 | 0.00 | 0.00 | 39 | 1010.8 |
| 20260508060041 | 57 | 91 | 2.0 | 4.0 | 0.00 | 0.00 | 0.00 | 39 | 1010.1 |
| 20260508055738 | 58 | 91 | 3.0 | 4.0 | 0.00 | 0.00 | 0.00 | 40 | 1010.7 |
| 20260508055222 | 58 | 61 | 3.0 | 4.0 | 0.00 | 0.00 | 0.00 | 40 | 1010.6 |
| 20260508054733 | 58 | 57 | 3.0 | 4.0 | 0.00 | 0.00 | 0.00 | 40 | 1010.5 |
| 20260508054549 | 58 | 57 | 3.0 | 4.0 | 0.00 | 0.00 | 0.00 | 40 | 1009.8 |
| 20260508054244 | 58 | 57 | 3.0 | 5.0 | 0.00 | 0.00 | 0.00 | 40 | 1010.5 |
| 20260508053724 | 58 | 56 | 3.0 | 5.0 | 0.00 | 0.00 | 0.00 | 40 | 1010.4 |
| 20260508053236 | 58 | 57 | 3.0 | 5.0 | 0.00 | 0.00 | 0.00 | 40 | 1010.4 |
| 20260508053101 | 58 | 51 | 3.0 | 5.0 | 0.00 | 0.00 | 0.00 | 40 | 1009.8 |
| 20260508052746 | 58 | 53 | 4.0 | 5.0 | 0.00 | 0.00 | 0.00 | 40 | 1010.3 |
| 20260508052230 | 58 | 66 | 4.0 | 5.0 | 0.00 | 0.00 | 0.00 | 40 | 1010.4 |
| 20260508051737 | 58 | 58 | 4.0 | 5.0 | 0.00 | 0.00 | 0.00 | 40 | 1010.3 |
| 20260508051605 | 58 | 56 | 3.0 | 5.0 | 0.00 | 0.00 | 0.00 | 39 | 1009.8 |
| 20260508051249 | 58 | 50 | 4.0 | 6.0 | 0.00 | 0.00 | 0.00 | 39 | 1010.4 |
| 20260508050739 | 58 | 22 | 4.0 | 6.0 | 0.00 | 0.00 | 0.00 | 39 | 1010.4 |
| 20260508050248 | 58 | 24 | 4.0 | 5.0 | 0.00 | 0.00 | 0.00 | 40 | 1010.4 |
| 20260508050033 | 58 | 39 | 3.0 | 6.0 | 0.00 | 0.00 | 0.00 | 39 | 1010.0 |
| 20260508045749 | 58 | 42 | 4.0 | 6.0 | 0.00 | 0.00 | 0.00 | 39 | 1010.5 |
| 20260508045232 | 58 | 42 | 4.0 | 6.0 | 0.00 | 0.00 | 0.00 | 39 | 1010.6 |
| 20260508044743 | 58 | 49 | 4.0 | 5.0 | 0.00 | 0.00 | 0.00 | 38 | 1010.7 |
| 20260508044515 | 58 | 58 | 3.0 | 5.0 | 0.00 | 0.00 | 0.00 | 38 | 1010.2 |
| 20260508044232 | 58 | 58 | 3.0 | 4.0 | 0.00 | 0.00 | 0.00 | 38 | 1010.7 |
| 20260508043744 | 58 | 58 | 3.0 | 4.0 | 0.00 | 0.00 | 0.00 | 38 | 1010.8 |
| 20260508043228 | 58 | 62 | 3.0 | 5.0 | 0.00 | 0.00 | 0.00 | 37 | 1010.8 |
| 20260508043022 | 58 | 62 | 3.0 | 5.0 | 0.00 | 0.00 | 0.00 | 37 | 1010.3 |
| 20260508042739 | 59 | 62 | 3.0 | 5.0 | 0.00 | 0.00 | 0.00 | 37 | 1010.8 |
| 20260508042252 | 59 | 66 | 4.0 | 5.0 | 0.00 | 0.00 | 0.00 | 37 | 1010.7 |
| 20260508041743 | 59 | 71 | 4.0 | 5.0 | 0.00 | 0.00 | 0.00 | 37 | 1010.7 |
| 20260508041608 | 58 | 64 | 3.0 | 5.0 | 0.00 | 0.00 | 0.00 | 37 | 1010.2 |
| 20260508041514 | 58 | 65 | 3.0 | 5.0 | 0.00 | 0.00 | 0.00 | 37 | 1010.2 |
| 20260508041227 | 59 | 66 | 3.0 | 5.0 | 0.00 | 0.00 | 0.00 | 37 | 1010.8 |
| 20260508040733 | 59 | 67 | 4.0 | 7.0 | 0.00 | 0.00 | 0.00 | 37 | 1010.8 |
| 20260508040243 | 59 | 83 | 4.0 | 7.0 | 0.00 | 0.00 | 0.00 | 37 | 1010.8 |
| 20260508040010 | 58 | 92 | 4.0 | 7.0 | 0.00 | 0.00 | 0.00 | 37 | 1010.2 |
| 20260508035726 | 59 | 88 | 5.0 | 7.0 | 0.00 | 0.00 | 0.00 | 37 | 1010.7 |
| 20260508035237 | 59 | 86 | 4.0 | 7.0 | 0.00 | 0.00 | 0.00 | 37 | 1010.6 |
| 20260508034723 | 59 | 83 | 4.0 | 7.0 | 0.00 | 0.00 | 0.00 | 37 | 1010.5 |
| 20260508034526 | 59 | 68 | 4.0 | 6.0 | 0.00 | 0.00 | 0.00 | 36 | 1010.1 |
| 20260508034237 | 60 | 86 | 4.0 | 6.0 | 0.00 | 0.00 | 0.00 | 36 | 1010.6 |
| 20260508033746 | 60 | 82 | 4.0 | 6.0 | 0.00 | 0.00 | 0.00 | 36 | 1010.6 |
| 20260508033237 | 60 | 49 | 4.0 | 5.0 | 0.00 | 0.00 | 0.00 | 36 | 1010.7 |
| 20260508033009 | 60 | 49 | 3.0 | 4.0 | 0.00 | 0.00 | 0.00 | 36 | 1010.2 |
| 20260508032748 | 60 | 49 | 3.0 | 4.0 | 0.00 | 0.00 | 0.00 | 36 | 1010.8 |
| 20260508032238 | 60 | 49 | 3.0 | 4.0 | 0.00 | 0.00 | 0.00 | 36 | 1010.8 |
| 20260508031749 | 61 | 49 | 3.0 | 4.0 | 0.00 | 0.00 | 0.00 | 35 | 1010.7 |
| 20260508031532 | 60 | 49 | 3.0 | 4.0 | 0.00 | 0.00 | 0.00 | 35 | 1010.2 |
| 20260508031302 | 61 | 49 | 3.0 | 4.0 | 0.00 | 0.00 | 0.00 | 35 | 1010.7 |
| 20260508030723 | 61 | 49 | 3.0 | 5.0 | 0.00 | 0.00 | 0.00 | 35 | 1010.7 |
| 20260508030237 | 61 | 49 | 4.0 | 5.0 | 0.00 | 0.00 | 0.00 | 35 | 1010.7 |
| 20260508030019 | 61 | 49 | 3.0 | 5.0 | 0.00 | 0.00 | 0.00 | 35 | 1010.2 |
| 20260508025744 | 61 | 49 | 4.0 | 5.0 | 0.00 | 0.00 | 0.00 | 35 | 1010.7 |
| 20260508025225 | 61 | 49 | 4.0 | 5.0 | 0.00 | 0.00 | 0.00 | 34 | 1010.7 |
| 20260508024736 | 61 | 49 | 4.0 | 6.0 | 0.00 | 0.00 | 0.00 | 34 | 1010.6 |
| 20260508024525 | 61 | 49 | 3.0 | 6.0 | 0.00 | 0.00 | 0.00 | 34 | 1010.1 |
| 20260508024223 | 62 | 49 | 4.0 | 6.0 | 0.00 | 0.00 | 0.00 | 33 | 1010.5 |
| 20260508023736 | 62 | 44 | 3.0 | 5.0 | 0.00 | 0.00 | 0.00 | 33 | 1010.5 |
| 20260508023222 | 62 | 44 | 2.0 | 4.0 | 0.00 | 0.00 | 0.00 | 32 | 1010.5 |
| 20260508023030 | 62 | 32 | 2.0 | 5.0 | 0.00 | 0.00 | 0.00 | 32 | 1010.1 |
| 20260508022733 | 62 | 42 | 3.0 | 5.0 | 0.00 | 0.00 | 0.00 | 32 | 1010.5 |
| 20260508022244 | 63 | 26 | 3.0 | 5.0 | 0.00 | 0.00 | 0.00 | 32 | 1010.4 |
| 20260508021727 | 63 | 19 | 4.0 | 5.0 | 0.00 | 0.00 | 0.00 | 31 | 1010.3 |
| 20260508021530 | 63 | 10 | 3.0 | 5.0 | 0.00 | 0.00 | 0.00 | 31 | 1009.8 |
| 20260508021239 | 63 | 9 | 3.0 | 4.0 | 0.00 | 0.00 | 0.00 | 31 | 1010.2 |
| 20260508020750 | 64 | 9 | 2.0 | 4.0 | 0.00 | 0.00 | 0.00 | 31 | 1010.0 |
| 20260508020242 | 64 | 9 | 2.0 | 4.0 | 0.00 | 0.00 | 0.00 | 30 | 1010.0 |
| 20260508020058 | 64 | 9 | 3.0 | 4.0 | 0.00 | 0.00 | 0.00 | 30 | 1009.4 |
| 20260508015733 | 64 | 9 | 3.0 | 4.0 | 0.00 | 0.00 | 0.00 | 30 | 1009.9 |
| 20260508015246 | 65 | 5 | 3.0 | 5.0 | 0.00 | 0.00 | 0.00 | 30 | 1009.9 |
| 20260508014730 | 65 | 9 | 3.0 | 6.0 | 0.00 | 0.00 | 0.00 | 29 | 1009.9 |
| 20260508014600 | 65 | 355 | 3.0 | 6.0 | 0.00 | 0.00 | 0.00 | 30 | 1009.4 |
| 20260508014243 | 65 | 350 | 4.0 | 6.0 | 0.00 | 0.00 | 0.00 | 30 | 1009.8 |
| 20260508013809 | 66 | 355 | 4.0 | 6.0 | 0.00 | 0.00 | 0.00 | 29 | 1009.9 |
| 20260508013235 | 66 | 350 | 4.0 | 6.0 | 0.00 | 0.00 | 0.00 | 29 | 1009.8 |
| 20260508013044 | 66 | 355 | 4.0 | 6.0 | 0.00 | 0.00 | 0.00 | 28 | 1009.2 |
| 20260508012748 | 67 | 343 | 5.0 | 6.0 | 0.00 | 0.00 | 0.00 | 28 | 1009.7 |
| 20260508012233 | 67 | 355 | 4.0 | 6.0 | 0.00 | 0.00 | 0.00 | 28 | 1009.6 |
| 20260508011807 | 68 | 350 | 5.0 | 10.0 | 0.00 | 0.00 | 0.00 | 28 | 1009.6 |
| 20260508011524 | 68 | 5 | 4.0 | 10.0 | 0.00 | 0.00 | 0.00 | 28 | 1009.1 |
| 20260508011232 | 68 | 355 | 6.0 | 10.0 | 0.00 | 0.00 | 0.00 | 27 | 1009.5 |
| 20260508010744 | 69 | 360 | 7.0 | 10.0 | 0.00 | 0.00 | 0.00 | 27 | 1009.5 |
| 20260508010221 | 70 | 360 | 7.0 | 9.0 | 0.00 | 0.00 | 0.00 | 27 | 1009.5 |
| 20260508010029 | 69 | 360 | 5.0 | 9.0 | 0.00 | 0.00 | 0.00 | 27 | 1009.0 |
| 20260508005754 | 70 | 347 | 5.0 | 9.0 | 0.00 | 0.00 | 0.00 | 27 | 1009.4 |
| 20260508005245 | 70 | 345 | 4.0 | 6.0 | 0.00 | 0.00 | 0.00 | 26 | 1009.4 |
| 20260508004733 | 70 | 340 | 4.0 | 8.0 | 0.00 | 0.00 | 0.00 | 26 | 1009.4 |
| 20260508004514 | 70 | 316 | 4.0 | 13.0 | 0.00 | 0.00 | 0.00 | 26 | 1008.9 |
| 20260508004246 | 71 | 333 | 4.0 | 13.0 | 0.00 | 0.00 | 0.00 | 25 | 1009.2 |
| 20260508003728 | 71 | 327 | 8.0 | 14.0 | 0.00 | 0.00 | 0.00 | 25 | 1009.1 |
| 20260508003241 | 71 | 331 | 9.0 | 14.0 | 0.00 | 0.00 | 0.00 | 24 | 1009.2 |
| 20260508003022 | 71 | 321 | 9.0 | 14.0 | 0.00 | 0.00 | 0.00 | 24 | 1008.7 |
| 20260508002725 | 71 | 355 | 7.0 | 12.0 | 0.00 | 0.00 | 0.00 | 24 | 1009.2 |
| 20260508002234 | 71 | 305 | 7.0 | 16.0 | 0.00 | 0.00 | 0.00 | 23 | 1009.2 |
| 20260508001805 | 72 | 343 | 9.0 | 16.0 | 0.00 | 0.00 | 0.00 | 23 | 1009.1 |
| 20260508001503 | 71 | 317 | 8.0 | 13.0 | 0.00 | 0.00 | 0.00 | 23 | 1008.6 |
| 20260508001230 | 72 | 317 | 8.0 | 15.0 | 0.00 | 0.00 | 0.00 | 24 | 1009.1 |
| 20260508000740 | 72 | 334 | 10.0 | 16.0 | 0.00 | 0.00 | 0.00 | 24 | 1009.0 |
| 20260508000227 | 72 | 311 | 9.0 | 17.0 | 0.00 | 0.00 | 0.00 | 24 | 1009.0 |
| 20260508000011 | 72 | 325 | 9.0 | 17.0 | 0.00 | 0.00 | 0.00 | 24 | 1008.6 |
| 20260507235737 | 73 | 314 | 9.0 | 17.0 | 0.00 | 0.00 | 0.00 | 23 | 1009.0 |
| 20260507235249 | 73 | 304 | 11.0 | 20.0 | 0.00 | 0.00 | 0.00 | 24 | 1009.0 |
| 20260507234736 | 73 | 291 | 10.0 | 20.0 | 0.00 | 0.00 | 0.00 | 23 | 1009.0 |
| 20260507234505 | 73 | 321 | 13.0 | 20.0 | 0.00 | 0.00 | 0.00 | 23 | 1008.7 |
| 20260507234251 | 73 | 275 | 10.0 | 14.0 | 0.00 | 0.00 | 0.00 | 24 | 1009.1 |
| 20260507233741 | 73 | 292 | 7.0 | 12.0 | 0.00 | 0.00 | 0.00 | 25 | 1009.1 |
| 20260507233226 | 73 | 317 | 6.0 | 11.0 | 0.00 | 0.00 | 0.00 | 25 | 1009.0 |
| 20260507233044 | 72 | 302 | 7.0 | 16.0 | 0.00 | 0.00 | 0.00 | 25 | 1008.6 |
| 20260507232740 | 73 | 318 | 6.0 | 16.0 | 0.00 | 0.00 | 0.00 | 24 | 1009.0 |
| 20260507232224 | 73 | 324 | 12.0 | 16.0 | 0.00 | 0.00 | 0.00 | 24 | 1009.1 |
| 20260507231736 | 73 | 272 | 8.0 | 13.0 | 0.00 | 0.00 | 0.00 | 25 | 1009.0 |
| 20260507231552 | 72 | 292 | 6.0 | 13.0 | 0.00 | 0.00 | 0.00 | 27 | 1008.9 |
| 20260507231222 | 73 | 277 | 9.0 | 13.0 | 0.00 | 0.00 | 0.00 | 26 | 1009.1 |
| 20260507230749 | 73 | 331 | 6.0 | 17.0 | 0.00 | 0.00 | 0.00 | 27 | 1009.1 |
| 20260507230233 | 73 | 327 | 11.0 | 17.0 | 0.00 | 0.00 | 0.00 | 25 | 1009.0 |
| 20260507230052 | 72 | 330 | 11.0 | 17.0 | 0.00 | 0.00 | 0.00 | 27 | 1008.7 |
| 20260507225745 | 72 | 263 | 7.0 | 15.0 | 0.00 | 0.00 | 0.00 | 26 | 1009.0 |
| 20260507225227 | 73 | 342 | 9.0 | 16.0 | 0.00 | 0.00 | 0.00 | 27 | 1009.0 |
| 20260507224738 | 73 | 338 | 10.0 | 17.0 | 0.00 | 0.00 | 0.00 | 27 | 1009.0 |
| 20260507224559 | 72 | 343 | 11.0 | 17.0 | 0.00 | 0.00 | 0.00 | 26 | 1008.6 |
| 20260507224230 | 73 | 325 | 12.0 | 17.0 | 0.00 | 0.00 | 0.00 | 26 | 1009.1 |
| 20260507223740 | 73 | 312 | 8.0 | 16.0 | 0.00 | 0.00 | 0.00 | 27 | 1009.2 |
| 20260507223308 | 74 | 323 | 11.0 | 16.0 | 0.00 | 0.00 | 0.00 | 26 | 1009.2 |
| 20260507223022 | 73 | 324 | 6.0 | 15.0 | 0.00 | 0.00 | 0.00 | 27 | 1008.8 |
| 20260507222730 | 73 | 291 | 9.0 | 15.0 | 0.00 | 0.00 | 0.00 | 27 | 1009.2 |
| 20260507222245 | 73 | 319 | 12.0 | 16.0 | 0.00 | 0.00 | 0.00 | 26 | 1009.2 |
| 20260507221728 | 74 | 321 | 12.0 | 18.0 | 0.00 | 0.00 | 0.00 | 26 | 1009.2 |
| 20260507221529 | 73 | 315 | 11.0 | 19.0 | 0.00 | 0.00 | 0.00 | 26 | 1008.9 |
| 20260507221241 | 73 | 296 | 10.0 | 19.0 | 0.00 | 0.00 | 0.00 | 26 | 1009.2 |
| 20260507220724 | 74 | 338 | 13.0 | 19.0 | 0.00 | 0.00 | 0.00 | 25 | 1009.2 |
| 20260507220235 | 74 | 292 | 11.0 | 18.0 | 0.00 | 0.00 | 0.00 | 25 | 1009.2 |
| 20260507220031 | 74 | 298 | 7.0 | 20.0 | 0.00 | 0.00 | 0.00 | 26 | 1008.8 |
| 20260507215743 | 74 | 284 | 9.0 | 20.0 | 0.00 | 0.00 | 0.00 | 25 | 1009.2 |
| 20260507215227 | 74 | 278 | 13.0 | 23.0 | 0.00 | 0.00 | 0.00 | 24 | 1009.2 |
| 20260507214739 | 74 | 305 | 17.0 | 23.0 | 0.00 | 0.00 | 0.00 | 25 | 1009.1 |
| 20260507214538 | 73 | 294 | 13.0 | 22.0 | 0.00 | 0.00 | 0.00 | 24 | 1008.7 |
| 20260507214252 | 74 | 286 | 16.0 | 24.0 | 0.00 | 0.00 | 0.00 | 23 | 1009.1 |
| 20260507213743 | 74 | 275 | 15.0 | 24.0 | 0.00 | 0.00 | 0.00 | 22 | 1009.2 |
| 20260507213223 | 74 | 320 | 11.0 | 18.0 | 0.00 | 0.00 | 0.00 | 26 | 1009.2 |
| 20260507213020 | 74 | 309 | 9.0 | 20.0 | 0.00 | 0.00 | 0.00 | 28 | 1008.8 |
| 20260507212734 | 74 | 313 | 10.0 | 20.0 | 0.00 | 0.00 | 0.00 | 26 | 1009.3 |
| 20260507212246 | 74 | 305 | 14.0 | 26.0 | 0.00 | 0.00 | 0.00 | 26 | 1009.2 |
| 20260507211728 | 75 | 296 | 18.0 | 26.0 | 0.00 | 0.00 | 0.00 | 25 | 1009.1 |
| 20260507211526 | 75 | 302 | 17.0 | 24.0 | 0.00 | 0.00 | 0.00 | 26 | 1008.8 |
| 20260507211241 | 75 | 343 | 15.0 | 23.0 | 0.00 | 0.00 | 0.00 | 27 | 1009.2 |
| 20260507210725 | 75 | 344 | 10.0 | 23.0 | 0.00 | 0.00 | 0.00 | 27 | 1009.2 |
| 20260507210258 | 74 | 333 | 11.0 | 21.0 | 0.00 | 0.00 | 0.00 | 27 | 1009.4 |
| 20260507210058 | 73 | 305 | 6.0 | 20.0 | 0.00 | 0.00 | 0.00 | 27 | 1008.9 |
| 20260507210005 | 73 | 252 | 6.0 | 20.0 | 0.00 | 0.00 | 0.00 | 27 | 1008.9 |
| 20260507205722 | 74 | 250 | 11.0 | 20.0 | 0.00 | 0.00 | 0.00 | 28 | 1009.4 |
| 20260507205234 | 75 | 296 | 12.0 | 24.0 | 0.00 | 0.00 | 0.00 | 26 | 1009.3 |
| 20260507204746 | 75 | 292 | 17.0 | 24.0 | 0.00 | 0.00 | 0.00 | 24 | 1009.4 |
| 20260507204516 | 74 | 284 | 13.0 | 22.0 | 0.00 | 0.00 | 0.00 | 26 | 1009.1 |
| 20260507204231 | 74 | 293 | 13.0 | 22.0 | 0.00 | 0.00 | 0.00 | 25 | 1009.4 |
| 20260507203736 | 74 | 300 | 12.0 | 21.0 | 0.00 | 0.00 | 0.00 | 26 | 1009.5 |
| 20260507203221 | 75 | 319 | 14.0 | 21.0 | 0.00 | 0.00 | 0.00 | 23 | 1009.5 |
| 20260507203020 | 75 | 266 | 14.0 | 21.0 | 0.00 | 0.00 | 0.00 | 23 | 1009.1 |
| 20260507202732 | 75 | 290 | 13.0 | 21.0 | 0.00 | 0.00 | 0.00 | 26 | 1009.6 |
| 20260507202242 | 75 | 302 | 13.0 | 24.0 | 0.00 | 0.00 | 0.00 | 27 | 1009.6 |
| 20260507201727 | 74 | 229 | 8.0 | 24.0 | 0.00 | 0.00 | 0.00 | 28 | 1009.6 |
| 20260507201524 | 74 | 249 | 12.0 | 24.0 | 0.00 | 0.00 | 0.00 | 27 | 1009.3 |
| 20260507201242 | 75 | 284 | 10.0 | 21.0 | 0.00 | 0.00 | 0.00 | 29 | 1009.6 |
| 20260507200726 | 76 | 300 | 16.0 | 20.0 | 0.00 | 0.00 | 0.00 | 25 | 1009.6 |
| 20260507200253 | 76 | 323 | 13.0 | 19.0 | 0.00 | 0.00 | 0.00 | 25 | 1009.6 |
| 20260507200103 | 75 | 294 | 12.0 | 19.0 | 0.00 | 0.00 | 0.00 | 27 | 1009.3 |
| 20260507195803 | 74 | 297 | 10.0 | 22.0 | 0.00 | 0.00 | 0.00 | 31 | 1009.6 |
| 20260507195226 | 74 | 275 | 12.0 | 22.0 | 0.00 | 0.00 | 0.00 | 30 | 1009.7 |
| 20260507194739 | 74 | 290 | 11.0 | 20.0 | 0.00 | 0.00 | 0.00 | 31 | 1009.6 |
| 20260507194539 | 74 | 342 | 14.0 | 25.0 | 0.00 | 0.00 | 0.00 | 29 | 1009.3 |
| 20260507194224 | 75 | 289 | 13.0 | 25.0 | 0.00 | 0.00 | 0.00 | 30 | 1009.6 |
| 20260507193733 | 74 | 306 | 16.0 | 25.0 | 0.00 | 0.00 | 0.00 | 28 | 1009.5 |
| 20260507193246 | 74 | 238 | 11.0 | 19.0 | 0.00 | 0.00 | 0.00 | 28 | 1009.6 |
| 20260507193051 | 74 | 251 | 13.0 | 19.0 | 0.00 | 0.00 | 0.00 | 25 | 1009.2 |
| 20260507192729 | 75 | 262 | 13.0 | 18.0 | 0.00 | 0.00 | 0.00 | 29 | 1009.7 |
| 20260507192236 | 73 | 209 | 8.0 | 17.0 | 0.00 | 0.00 | 0.00 | 35 | 1009.7 |
| 20260507191748 | 73 | 317 | 8.0 | 21.0 | 0.00 | 0.00 | 0.00 | 31 | 1009.6 |
| 20260507191547 | 73 | 297 | 12.0 | 21.0 | 0.00 | 0.00 | 0.00 | 32 | 1009.3 |
| 20260507191233 | 74 | 244 | 16.0 | 23.0 | 0.00 | 0.00 | 0.00 | 33 | 1009.7 |
| 20260507190742 | 73 | 252 | 11.0 | 23.0 | 0.00 | 0.00 | 0.00 | 33 | 1009.6 |
| 20260507190226 | 72 | 263 | 9.0 | 19.0 | 0.00 | 0.00 | 0.00 | 34 | 1009.6 |
| 20260507190049 | 72 | 216 | 9.0 | 19.0 | 0.00 | 0.00 | 0.00 | 32 | 1009.4 |
| 20260507185737 | 71 | 279 | 14.0 | 20.0 | 0.00 | 0.00 | 0.00 | 34 | 1009.7 |
| 20260507185249 | 71 | 279 | 12.0 | 22.0 | 0.00 | 0.00 | 0.00 | 33 | 1009.8 |
| 20260507184730 | 74 | 238 | 14.0 | 21.0 | 0.00 | 0.00 | 0.00 | 31 | 1009.8 |
| 20260507184533 | 73 | 206 | 9.0 | 15.0 | 0.00 | 0.00 | 0.00 | 31 | 1009.7 |
| 20260507184302 | 74 | 257 | 6.0 | 14.0 | 0.00 | 0.00 | 0.00 | 37 | 1010.0 |
| 20260507183722 | 72 | 247 | 9.0 | 21.0 | 0.00 | 0.00 | 0.00 | 32 | 1010.0 |
| 20260507183235 | 71 | 267 | 9.0 | 19.0 | 0.00 | 0.00 | 0.00 | 35 | 1010.2 |
| 20260507183013 | 71 | 219 | 9.0 | 19.0 | 0.00 | 0.00 | 0.00 | 33 | 1009.9 |
| 20260507182745 | 72 | 284 | 12.0 | 19.0 | 0.00 | 0.00 | 0.00 | 34 | 1010.2 |
| 20260507182234 | 71 | 271 | 13.0 | 21.0 | 0.00 | 0.00 | 0.00 | 34 | 1010.2 |
| 20260507181746 | 71 | 254 | 15.0 | 21.0 | 0.00 | 0.00 | 0.00 | 34 | 1010.4 |
| 20260507181559 | 71 | 227 | 14.0 | 23.0 | 0.00 | 0.00 | 0.00 | 33 | 1010.2 |
| 20260507181228 | 71 | 238 | 15.0 | 23.0 | 0.00 | 0.00 | 0.00 | 33 | 1010.5 |
| 20260507180739 | 71 | 245 | 16.0 | 23.0 | 0.00 | 0.00 | 0.00 | 33 | 1010.5 |
| 20260507180223 | 71 | 259 | 11.0 | 29.0 | 0.00 | 0.00 | 0.00 | 35 | 1010.5 |
| 20260507180017 | 70 | 194 | 16.0 | 29.0 | 0.00 | 0.00 | 0.00 | 33 | 1010.2 |
| 20260507175733 | 70 | 215 | 13.0 | 24.0 | 0.00 | 0.00 | 0.00 | 36 | 1010.3 |
| 20260507175244 | 71 | 260 | 14.0 | 22.0 | 0.00 | 0.00 | 0.00 | 34 | 1010.5 |
| 20260507174726 | 71 | 260 | 15.0 | 24.0 | 0.00 | 0.00 | 0.00 | 33 | 1010.6 |
| 20260507174512 | 71 | 256 | 15.0 | 24.0 | 0.00 | 0.00 | 0.00 | 34 | 1010.4 |
| 20260507174238 | 71 | 259 | 14.0 | 24.0 | 0.00 | 0.00 | 0.00 | 32 | 1010.6 |
| 20260507173721 | 70 | 215 | 14.0 | 26.0 | 0.00 | 0.00 | 0.00 | 32 | 1010.7 |
| 20260507173309 | 70 | 234 | 19.0 | 26.0 | 0.00 | 0.00 | 0.00 | 31 | 1010.7 |
| 20260507173048 | 70 | 225 | 14.0 | 25.0 | 0.00 | 0.00 | 0.00 | 31 | 1010.4 |
| 20260507172729 | 70 | 234 | 13.0 | 25.0 | 0.00 | 0.00 | 0.00 | 31 | 1010.7 |
| 20260507172239 | 70 | 230 | 16.0 | 25.0 | 0.00 | 0.00 | 0.00 | 31 | 1010.7 |
| 20260507171722 | 70 | 241 | 13.0 | 25.0 | 0.00 | 0.00 | 0.00 | 32 | 1010.8 |
| 20260507171559 | 70 | 219 | 14.0 | 25.0 | 0.00 | 0.00 | 0.00 | 32 | 1010.6 |
| 20260507171236 | 70 | 201 | 13.0 | 24.0 | 0.00 | 0.00 | 0.00 | 31 | 1010.8 |
| 20260507170806 | 70 | 221 | 12.0 | 21.0 | 0.00 | 0.00 | 0.00 | 32 | 1011.0 |
| 20260507170227 | 70 | 199 | 13.0 | 25.0 | 0.00 | 0.00 | 0.00 | 31 | 1011.1 |
| 20260507170031 | 69 | 212 | 14.0 | 25.0 | 0.00 | 0.00 | 0.00 | 30 | 1010.9 |
| 20260507165734 | 69 | 225 | 8.0 | 23.0 | 0.00 | 0.00 | 0.00 | 33 | 1011.2 |
| 20260507165246 | 70 | 227 | 14.0 | 23.0 | 0.00 | 0.00 | 0.00 | 33 | 1011.3 |
| 20260507164730 | 69 | 211 | 13.0 | 20.0 | 0.00 | 0.00 | 0.00 | 34 | 1011.3 |
| 20260507164539 | 68 | 217 | 11.0 | 20.0 | 0.00 | 0.00 | 0.00 | 32 | 1011.1 |
| 20260507164244 | 69 | 213 | 14.0 | 22.0 | 0.00 | 0.00 | 0.00 | 30 | 1011.3 |
| 20260507163724 | 69 | 167 | 11.0 | 22.0 | 0.00 | 0.00 | 0.00 | 32 | 1011.3 |
| 20260507163234 | 69 | 200 | 14.0 | 22.0 | 0.00 | 0.00 | 0.00 | 33 | 1011.4 |
| 20260507163036 | 67 | 229 | 11.0 | 19.0 | 0.00 | 0.00 | 0.00 | 34 | 1011.3 |
| 20260507162745 | 67 | 214 | 12.0 | 21.0 | 0.00 | 0.00 | 0.00 | 34 | 1011.6 |
| 20260507162226 | 67 | 236 | 13.0 | 21.0 | 0.00 | 0.00 | 0.00 | 36 | 1011.6 |
| 20260507161753 | 66 | 215 | 13.0 | 20.0 | 0.00 | 0.00 | 0.00 | 35 | 1011.7 |
| 20260507161519 | 66 | 213 | 13.0 | 20.0 | 0.00 | 0.00 | 0.00 | 37 | 1011.7 |
| 20260507161224 | 66 | 225 | 13.0 | 20.0 | 0.00 | 0.00 | 0.00 | 39 | 1011.7 |
| 20260507160732 | 66 | 216 | 13.0 | 20.0 | 0.00 | 0.00 | 0.00 | 38 | 1011.8 |
| 20260507160243 | 67 | 221 | 12.0 | 20.0 | 0.00 | 0.00 | 0.00 | 41 | 1012.0 |
| 20260507160050 | 66 | 200 | 12.0 | 20.0 | 0.00 | 0.00 | 0.00 | 43 | 1011.9 |
| 20260507155726 | 65 | 231 | 11.0 | 16.0 | 0.00 | 0.00 | 0.00 | 41 | 1012.1 |
| 20260507155238 | 64 | 216 | 9.0 | 16.0 | 0.00 | 0.00 | 0.00 | 44 | 1012.2 |
| 20260507154722 | 64 | 219 | 10.0 | 16.0 | 0.00 | 0.00 | 0.00 | 45 | 1012.2 |
| 20260507154543 | 64 | 242 | 11.0 | 16.0 | 0.00 | 0.00 | 0.00 | 46 | 1012.1 |
| 20260507154230 | 64 | 239 | 11.0 | 17.0 | 0.00 | 0.00 | 0.00 | 47 | 1012.2 |
| 20260507153737 | 64 | 220 | 10.0 | 21.0 | 0.00 | 0.00 | 0.00 | 45 | 1012.2 |
| 20260507153249 | 63 | 244 | 12.0 | 21.0 | 0.00 | 0.00 | 0.00 | 44 | 1012.3 |
| 20260507153046 | 63 | 230 | 12.0 | 16.0 | 0.00 | 0.00 | 0.00 | 44 | 1012.2 |
| 20260507152731 | 64 | 186 | 9.0 | 16.0 | 0.00 | 0.00 | 0.00 | 47 | 1012.3 |
| 20260507152242 | 64 | 211 | 8.0 | 16.0 | 0.00 | 0.00 | 0.00 | 48 | 1012.3 |
| 20260507151725 | 62 | 239 | 12.0 | 15.0 | 0.00 | 0.00 | 0.00 | 47 | 1012.4 |
| 20260507151550 | 62 | 254 | 11.0 | 15.0 | 0.00 | 0.00 | 0.00 | 46 | 1012.3 |
| 20260507151239 | 63 | 193 | 11.0 | 15.0 | 0.00 | 0.00 | 0.00 | 48 | 1012.4 |
| 20260507150744 | 62 | 232 | 8.0 | 16.0 | 0.00 | 0.00 | 0.00 | 52 | 1012.4 |
| 20260507150227 | 61 | 235 | 10.0 | 16.0 | 0.00 | 0.00 | 0.00 | 51 | 1012.5 |
| 20260507150052 | 60 | 250 | 10.0 | 16.0 | 0.00 | 0.00 | 0.00 | 52 | 1012.4 |
| 20260507145738 | 61 | 225 | 10.0 | 18.0 | 0.00 | 0.00 | 0.00 | 52 | 1012.6 |
| 20260507145220 | 60 | 214 | 8.0 | 18.0 | 0.00 | 0.00 | 0.00 | 53 | 1012.6 |
| 20260507144734 | 60 | 225 | 10.0 | 16.0 | 0.00 | 0.00 | 0.00 | 56 | 1012.6 |
| 20260507144616 | 59 | 221 | 9.0 | 16.0 | 0.00 | 0.00 | 0.00 | 55 | 1012.5 |
| 20260507144246 | 60 | 211 | 7.0 | 16.0 | 0.00 | 0.00 | 0.00 | 54 | 1012.6 |
| 20260507143726 | 59 | 192 | 10.0 | 17.0 | 0.00 | 0.00 | 0.00 | 56 | 1012.7 |
| 20260507143235 | 59 | 228 | 13.0 | 17.0 | 0.00 | 0.00 | 0.00 | 55 | 1012.7 |
| 20260507143052 | 58 | 222 | 12.0 | 17.0 | 0.00 | 0.00 | 0.00 | 56 | 1012.7 |
| 20260507142742 | 58 | 250 | 13.0 | 18.0 | 0.00 | 0.00 | 0.00 | 57 | 1012.7 |
| 20260507142223 | 58 | 214 | 9.0 | 18.0 | 0.00 | 0.00 | 0.00 | 57 | 1012.8 |
| 20260507141754 | 57 | 221 | 11.0 | 16.0 | 0.00 | 0.00 | 0.00 | 58 | 1012.8 |
| 20260507141520 | 57 | 223 | 10.0 | 18.0 | 0.00 | 0.00 | 0.00 | 60 | 1012.8 |
| 20260507141246 | 57 | 227 | 9.0 | 18.0 | 0.00 | 0.00 | 0.00 | 59 | 1012.9 |
| 20260507140728 | 57 | 220 | 10.0 | 15.0 | 0.00 | 0.00 | 0.00 | 60 | 1012.9 |
| 20260507140238 | 56 | 228 | 10.0 | 18.0 | 0.00 | 0.00 | 0.00 | 62 | 1012.9 |
| 20260507140020 | 55 | 216 | 11.0 | 19.0 | 0.00 | 0.00 | 0.00 | 61 | 1013.0 |
| 20260507135750 | 56 | 238 | 11.0 | 19.0 | 0.00 | 0.00 | 0.00 | 62 | 1013.0 |
| 20260507135236 | 55 | 229 | 12.0 | 20.0 | 0.00 | 0.00 | 0.00 | 62 | 1013.0 |
| 20260507134747 | 55 | 223 | 12.0 | 20.0 | 0.00 | 0.00 | 0.00 | 63 | 1013.0 |
| 20260507134600 | 55 | 239 | 10.0 | 17.0 | 0.00 | 0.00 | 0.00 | 63 | 1013.0 |
| 20260507134232 | 55 | 243 | 10.0 | 17.0 | 0.00 | 0.00 | 0.00 | 64 | 1013.1 |
| 20260507133742 | 54 | 234 | 10.0 | 17.0 | 0.00 | 0.00 | 0.00 | 66 | 1013.1 |
| 20260507133225 | 53 | 231 | 12.0 | 17.0 | 0.00 | 0.00 | 0.00 | 67 | 1013.1 |
| 20260507133004 | 53 | 250 | 12.0 | 20.0 | 0.00 | 0.00 | 0.00 | 66 | 1013.1 |
| 20260507132737 | 53 | 225 | 11.0 | 20.0 | 0.00 | 0.00 | 0.00 | 67 | 1013.1 |
| 20260507132246 | 53 | 211 | 11.0 | 20.0 | 0.00 | 0.00 | 0.00 | 68 | 1013.2 |
| 20260507131729 | 52 | 216 | 10.0 | 15.0 | 0.00 | 0.00 | 0.00 | 69 | 1013.2 |
| 20260507131506 | 51 | 221 | 9.0 | 15.0 | 0.00 | 0.00 | 0.00 | 70 | 1013.2 |
| 20260507131237 | 51 | 184 | 9.0 | 15.0 | 0.00 | 0.00 | 0.00 | 71 | 1013.2 |
| 20260507130746 | 51 | 218 | 10.0 | 15.0 | 0.00 | 0.00 | 0.00 | 72 | 1013.3 |
| 20260507130229 | 50 | 211 | 10.0 | 14.0 | 0.00 | 0.00 | 0.00 | 73 | 1013.4 |
| 20260507130006 | 49 | 238 | 8.0 | 14.0 | 0.00 | 0.00 | 0.00 | 74 | 1013.4 |
| 20260507125741 | 50 | 238 | 11.0 | 14.0 | 0.00 | 0.00 | 0.00 | 74 | 1013.4 |
| 20260507125225 | 49 | 217 | 9.0 | 12.0 | 0.00 | 0.00 | 0.00 | 75 | 1013.5 |
| 20260507124735 | 49 | 242 | 9.0 | 17.0 | 0.00 | 0.00 | 0.00 | 76 | 1013.5 |
| 20260507124516 | 48 | 230 | 8.0 | 17.0 | 0.00 | 0.00 | 0.00 | 76 | 1013.5 |
| 20260507124230 | 48 | 231 | 11.0 | 17.0 | 0.00 | 0.00 | 0.00 | 76 | 1013.5 |
| 20260507123738 | 48 | 229 | 11.0 | 16.0 | 0.00 | 0.00 | 0.00 | 77 | 1013.4 |
| 20260507123245 | 47 | 215 | 11.0 | 16.0 | 0.00 | 0.00 | 0.00 | 77 | 1013.4 |
| 20260507123051 | 47 | 234 | 9.0 | 15.0 | 0.00 | 0.00 | 0.00 | 78 | 1013.4 |
| 20260507122735 | 47 | 209 | 11.0 | 15.0 | 0.00 | 0.00 | 0.00 | 78 | 1013.4 |
| 20260507122308 | 47 | 238 | 8.0 | 12.0 | 0.00 | 0.00 | 0.00 | 79 | 1013.4 |
| 20260507121729 | 46 | 225 | 9.0 | 14.0 | 0.00 | 0.00 | 0.00 | 79 | 1013.5 |
| 20260507121532 | 46 | 226 | 9.0 | 14.0 | 0.00 | 0.00 | 0.00 | 80 | 1013.6 |
| 20260507121243 | 46 | 219 | 10.0 | 14.0 | 0.00 | 0.00 | 0.00 | 80 | 1013.5 |
| 20260507120726 | 45 | 225 | 9.0 | 14.0 | 0.00 | 0.00 | 0.00 | 80 | 1013.4 |
| 20260507120238 | 45 | 210 | 9.0 | 12.0 | 0.00 | 0.00 | 0.00 | 81 | 1013.4 |
| 20260507120036 | 44 | 209 | 9.0 | 12.0 | 0.00 | 0.00 | 0.00 | 81 | 1013.5 |
| 20260507115745 | 44 | 198 | 8.0 | 11.0 | 0.00 | 0.00 | 0.00 | 81 | 1013.4 |
| 20260507115226 | 44 | 202 | 7.0 | 10.0 | 0.00 | 0.00 | 0.00 | 80 | 1013.4 |
| 20260507114738 | 44 | 210 | 8.0 | 11.0 | 0.00 | 0.00 | 0.00 | 80 | 1013.4 |
| 20260507114542 | 44 | 220 | 7.0 | 11.0 | 0.00 | 0.00 | 0.00 | 80 | 1013.4 |
| 20260507114252 | 44 | 209 | 7.0 | 10.0 | 0.00 | 0.00 | 0.00 | 80 | 1013.3 |
| 20260507113741 | 44 | 211 | 7.0 | 10.0 | 0.00 | 0.00 | 0.00 | 80 | 1013.4 |
| 20260507113224 | 44 | 221 | 7.0 | 10.0 | 0.00 | 0.00 | 0.00 | 80 | 1013.4 |
| 20260507113100 | 44 | 213 | 7.0 | 10.0 | 0.00 | 0.00 | 0.00 | 80 | 1013.4 |
| 20260507113006 | 44 | 213 | 7.0 | 10.0 | 0.00 | 0.00 | 0.00 | 79 | 1013.4 |
| 20260507112735 | 44 | 216 | 8.0 | 10.0 | 0.00 | 0.00 | 0.00 | 79 | 1013.4 |
| 20260507112243 | 44 | 200 | 8.0 | 12.0 | 0.00 | 0.00 | 0.00 | 79 | 1013.4 |
| 20260507111725 | 44 | 209 | 9.0 | 12.0 | 0.00 | 0.00 | 0.00 | 79 | 1013.4 |
| 20260507111509 | 44 | 211 | 8.0 | 12.0 | 0.00 | 0.00 | 0.00 | 79 | 1013.5 |
| 20260507111239 | 44 | 213 | 9.0 | 12.0 | 0.00 | 0.00 | 0.00 | 79 | 1013.4 |
| 20260507110747 | 45 | 217 | 9.0 | 14.0 | 0.00 | 0.00 | 0.00 | 79 | 1013.4 |
| 20260507110232 | 44 | 217 | 9.0 | 14.0 | 0.00 | 0.00 | 0.00 | 79 | 1013.3 |
| 20260507110014 | 44 | 229 | 8.0 | 13.0 | 0.00 | 0.00 | 0.00 | 79 | 1013.4 |
| 20260507105743 | 45 | 214 | 8.0 | 12.0 | 0.00 | 0.00 | 0.00 | 79 | 1013.3 |
| 20260507105228 | 45 | 208 | 9.0 | 11.0 | 0.00 | 0.00 | 0.00 | 79 | 1013.3 |
| 20260507104741 | 45 | 211 | 8.0 | 11.0 | 0.00 | 0.00 | 0.00 | 78 | 1013.3 |
| 20260507104520 | 44 | 214 | 8.0 | 11.0 | 0.00 | 0.00 | 0.00 | 78 | 1013.3 |
| 20260507104226 | 45 | 218 | 8.0 | 13.0 | 0.00 | 0.00 | 0.00 | 78 | 1013.3 |
| 20260507103734 | 45 | 226 | 8.0 | 13.0 | 0.00 | 0.00 | 0.00 | 78 | 1013.3 |
| 20260507103246 | 45 | 209 | 8.0 | 10.0 | 0.00 | 0.00 | 0.00 | 78 | 1013.2 |
| 20260507103024 | 44 | 203 | 8.0 | 11.0 | 0.00 | 0.00 | 0.00 | 77 | 1013.3 |
| 20260507102729 | 45 | 194 | 7.0 | 10.0 | 0.00 | 0.00 | 0.00 | 77 | 1013.3 |
| 20260507102241 | 45 | 215 | 7.0 | 12.0 | 0.00 | 0.00 | 0.00 | 77 | 1013.3 |
| 20260507101725 | 45 | 207 | 8.0 | 12.0 | 0.00 | 0.00 | 0.00 | 77 | 1013.2 |
| 20260507101537 | 45 | 211 | 7.0 | 12.0 | 0.00 | 0.00 | 0.00 | 77 | 1013.3 |
| 20260507101238 | 45 | 188 | 8.0 | 11.0 | 0.00 | 0.00 | 0.00 | 76 | 1013.3 |
| 20260507100746 | 45 | 199 | 8.0 | 11.0 | 0.00 | 0.00 | 0.00 | 76 | 1013.3 |
| 20260507100231 | 45 | 216 | 8.0 | 12.0 | 0.00 | 0.00 | 0.00 | 76 | 1013.4 |
| 20260507100003 | 45 | 221 | 7.0 | 12.0 | 0.00 | 0.00 | 0.00 | 76 | 1013.5 |
| 20260507095745 | 46 | 204 | 7.0 | 12.0 | 0.00 | 0.00 | 0.00 | 76 | 1013.4 |
| 20260507095237 | 46 | 207 | 7.0 | 11.0 | 0.00 | 0.00 | 0.00 | 75 | 1013.4 |
| 20260507094750 | 46 | 213 | 7.0 | 14.0 | 0.00 | 0.00 | 0.00 | 76 | 1013.5 |
| 20260507094549 | 45 | 234 | 9.0 | 14.0 | 0.00 | 0.00 | 0.00 | 76 | 1013.6 |
| 20260507094232 | 46 | 203 | 10.0 | 14.0 | 0.00 | 0.00 | 0.00 | 76 | 1013.5 |
| 20260507093743 | 46 | 213 | 8.0 | 11.0 | 0.00 | 0.00 | 0.00 | 75 | 1013.5 |
| 20260507093226 | 46 | 213 | 9.0 | 12.0 | 0.00 | 0.00 | 0.00 | 75 | 1013.6 |
| 20260507093046 | 45 | 211 | 8.0 | 12.0 | 0.00 | 0.00 | 0.00 | 75 | 1013.7 |
| 20260507092736 | 45 | 199 | 9.0 | 12.0 | 0.00 | 0.00 | 0.00 | 75 | 1013.7 |
| 20260507092307 | 45 | 227 | 8.0 | 12.0 | 0.00 | 0.00 | 0.00 | 74 | 1013.7 |
| 20260507091728 | 45 | 227 | 8.0 | 10.0 | 0.00 | 0.00 | 0.00 | 74 | 1013.8 |
| 20260507091531 | 45 | 225 | 8.0 | 11.0 | 0.00 | 0.00 | 0.00 | 74 | 1013.8 |
| 20260507091239 | 45 | 231 | 8.0 | 11.0 | 0.00 | 0.00 | 0.00 | 74 | 1013.8 |
| 20260507090749 | 45 | 205 | 8.0 | 11.0 | 0.00 | 0.00 | 0.00 | 73 | 1013.9 |
| 20260507090232 | 45 | 246 | 8.0 | 12.0 | 0.00 | 0.00 | 0.00 | 73 | 1013.9 |
| 20260507090034 | 45 | 207 | 8.0 | 12.0 | 0.00 | 0.00 | 0.00 | 73 | 1014.1 |
| 20260507085744 | 45 | 200 | 8.0 | 10.0 | 0.00 | 0.00 | 0.00 | 73 | 1013.9 |
| 20260507085225 | 45 | 209 | 8.0 | 12.0 | 0.00 | 0.00 | 0.00 | 72 | 1014.1 |
| 20260507084733 | 45 | 230 | 8.0 | 11.0 | 0.00 | 0.00 | 0.00 | 72 | 1014.2 |
| 20260507084536 | 45 | 213 | 8.0 | 11.0 | 0.00 | 0.00 | 0.00 | 72 | 1014.3 |
| 20260507084245 | 45 | 227 | 9.0 | 12.0 | 0.00 | 0.00 | 0.00 | 72 | 1014.2 |
| 20260507083726 | 45 | 225 | 8.0 | 12.0 | 0.00 | 0.00 | 0.00 | 71 | 1014.2 |
| 20260507083237 | 45 | 203 | 8.0 | 10.0 | 0.00 | 0.00 | 0.00 | 71 | 1014.3 |
| 20260507083032 | 44 | 218 | 7.0 | 11.0 | 0.00 | 0.00 | 0.00 | 70 | 1014.4 |
| 20260507082233 | 45 | 211 | 8.0 | 11.0 | 0.00 | 0.00 | 0.00 | 70 | 1014.3 |
| 20260507081804 | 45 | 228 | 8.0 | 11.0 | 0.00 | 0.00 | 0.00 | 69 | 1014.4 |
| 20260507081533 | 44 | 226 | 8.0 | 11.0 | 0.00 | 0.00 | 0.00 | 69 | 1014.5 |
| 20260507081226 | 45 | 215 | 8.0 | 11.0 | 0.00 | 0.00 | 0.00 | 69 | 1014.5 |
| 20260507080733 | 45 | 219 | 7.0 | 10.0 | 0.00 | 0.00 | 0.00 | 68 | 1014.5 |
| 20260507080243 | 45 | 215 | 8.0 | 10.0 | 0.00 | 0.00 | 0.00 | 67 | 1014.7 |
| 20260507080039 | 44 | 228 | 8.0 | 10.0 | 0.00 | 0.00 | 0.00 | 67 | 1014.8 |
| 20260507075726 | 45 | 199 | 8.0 | 10.0 | 0.00 | 0.00 | 0.00 | 67 | 1014.7 |
| 20260507075256 | 45 | 211 | 8.0 | 11.0 | 0.00 | 0.00 | 0.00 | 66 | 1014.7 |
| 20260507074746 | 45 | 209 | 8.0 | 11.0 | 0.00 | 0.00 | 0.00 | 65 | 1014.7 |
| 20260507074520 | 44 | 217 | 8.0 | 11.0 | 0.00 | 0.00 | 0.00 | 65 | 1014.9 |
| 20260507074232 | 45 | 215 | 8.0 | 10.0 | 0.00 | 0.00 | 0.00 | 65 | 1014.7 |
| 20260507073740 | 44 | 216 | 8.0 | 10.0 | 0.00 | 0.00 | 0.00 | 65 | 1014.8 |
| 20260507073306 | 44 | 223 | 7.0 | 9.0 | 0.00 | 0.00 | 0.00 | 64 | 1014.8 |
| 20260507073101 | 44 | 221 | 6.0 | 9.0 | 0.00 | 0.00 | 0.00 | 63 | 1015.0 |
| 20260507072728 | 44 | 211 | 7.0 | 10.0 | 0.00 | 0.00 | 0.00 | 63 | 1014.9 |
| 20260507072239 | 44 | 211 | 6.0 | 10.0 | 0.00 | 0.00 | 0.00 | 61 | 1015.0 |
| 20260507071749 | 44 | 204 | 6.0 | 9.0 | 0.00 | 0.00 | 0.00 | 61 | 1015.1 |
| 20260507071557 | 44 | 210 | 6.0 | 9.0 | 0.00 | 0.00 | 0.00 | 60 | 1015.2 |
| 20260507071234 | 45 | 209 | 6.0 | 9.0 | 0.00 | 0.00 | 0.00 | 59 | 1015.2 |
| 20260507070743 | 45 | 197 | 6.0 | 8.0 | 0.00 | 0.00 | 0.00 | 59 | 1015.2 |
| 20260507070226 | 45 | 217 | 6.0 | 7.0 | 0.00 | 0.00 | 0.00 | 58 | 1015.3 |
| 20260507065737 | 45 | 199 | 6.0 | 8.0 | 0.00 | 0.00 | 0.00 | 58 | 1015.4 |
| 20260507065242 | 45 | 194 | 5.0 | 8.0 | 0.00 | 0.00 | 0.00 | 57 | 1015.4 |
| 20260507064726 | 45 | 205 | 5.0 | 8.0 | 0.00 | 0.00 | 0.00 | 56 | 1015.5 |
| 20260507064503 | 45 | 177 | 5.0 | 8.0 | 0.00 | 0.00 | 0.00 | 56 | 1015.7 |
| 20260507064239 | 45 | 203 | 5.0 | 8.0 | 0.00 | 0.00 | 0.00 | 56 | 1015.6 |
| 20260507063749 | 45 | 217 | 6.0 | 8.0 | 0.00 | 0.00 | 0.00 | 55 | 1015.6 |
| 20260507063238 | 46 | 196 | 6.0 | 9.0 | 0.00 | 0.00 | 0.00 | 55 | 1015.7 |
| 20260507063048 | 45 | 197 | 6.0 | 9.0 | 0.00 | 0.00 | 0.00 | 54 | 1015.8 |
| 20260507062749 | 46 | 209 | 5.0 | 8.0 | 0.00 | 0.00 | 0.00 | 54 | 1015.7 |
| 20260507062239 | 46 | 210 | 6.0 | 8.0 | 0.00 | 0.00 | 0.00 | 52 | 1015.8 |
| 20260507061747 | 46 | 207 | 4.0 | 6.0 | 0.00 | 0.00 | 0.00 | 51 | 1015.8 |
| 20260507061526 | 45 | 196 | 3.0 | 5.0 | 0.00 | 0.00 | 0.00 | 51 | 1015.9 |
| 20260507061234 | 46 | 182 | 3.0 | 6.0 | 0.00 | 0.00 | 0.00 | 50 | 1015.8 |
| 20260507060745 | 46 | 196 | 3.0 | 6.0 | 0.00 | 0.00 | 0.00 | 50 | 1015.9 |